Погода в Херес-де-ла-Фронтера

Испания     36°42′01″N   6°08′38″W
темп.,
°C
ветер,
м/с
пор.,
м/с
влажн.,
%
обл.,
%
осадки,
мм/ч
давл.,
гПа
погр.,
м
9 марта, вт
вт901:00+9з23820 0.0 101673
04:00+8сз11870 0.0 101658
07:00+7юв11903 0.0 101630
10:00+11в00801 0.0 1018196
13:00+15зсз21640 0.0 1018856
16:00+15з326644 0.0 1017805
19:00+13з238038 0.0 101673
22:00+11з22800 0.0 101941
10 марта, ср
ср1001:00+10ююз11820 0.0 102040
04:00+9юв238828 0.0 102032
07:00+9юв228924 0.0 102130
10:00+13всв22770 0.0 1023198
13:00+16ссз22640 0.0 1024781
16:00+18ссз23560 0.0 10231173
19:00+14зсз35800 0.0 1023111
22:00+12сз23760 0.0 102632
11 марта, чт
чт1101:00+11в12800 0.0 102626
04:00+10в11820 0.0 102626
07:00+9в22849 0.0 102627
10:00+14всв22726 0.0 1027182
13:00+18ссв11553 0.0 1027729
16:00+19сз32530 0.0 1026797
19:00+15зсз34710 0.0 102579
22:00+13сз34750 0.0 102659
12 марта, пт
пт1201:00+12с12790 0.0 102626
04:00+11с11830 0.0 102535
07:00+10ссв22890 0.0 102439
10:00+13с357922 0.0 1025256
13:00+18ссз346527 0.0 1025802
16:00+19зсз456637 0.0 1022704
19:00+17сз587431 0.0 1022177
22:00+14ссз6117661 0.0 1023343
13 марта, сб
сб1301:00+11ссз467531 0.0 1024134
04:00+9с45810 0.0 1023106
07:00+8с34790 0.0 102360
10:00+12св34710 0.0 1024276
13:00+17юв24620 0.0 1025920
16:00+18ю466554 0.1 10231047
19:00+15юз237929 0.1 102362
22:00+12ю35911 0.0 1025122